Location: �clusier
(49.9361°N, 2.7869°E)
Time: 19:54:17
(UTC+00:00)

ATLAS CENTAUR R/B - Pass Details

Date: 23 October 2021
Orbit: 459 x 682 km, 64.7° (Epoch: 25 November)

Event Time Altitude Azimuth Distance (km) Brightness Sun altitude
Exits shadow 05:29:26 - 306° (NW) 1,967 3.6 -9.4°
Reaches altitude 10° 05:29:43 10° 309° (NW) 1,903 3.6 -9.3°
Maximum altitude 05:32:12 15° 345° (NNW) 1,650 3.5 -8.9°
Drops below altitude 10° 05:34:46 10° 20° (NNE) 1,987 4.3 -8.5°
Sets 05:38:05 0° 44° (NE) 2,944 5.6 -8.0°
